Time,TemperatureF,DewpointF,PressureIn,WindDirection,WindDirectionDegrees,WindSpeedMPH,WindSpeedGustMPH,Humidity,HourlyPrecipIn,Conditions,Clouds,dailyrainin,SoftwareType,DateUTC
2013-03-03 00:02:00,29.0,20.0,-100.00,NW,315,3.0,4.0,65,0.00,,,-99.99,,2013-03-03 05:02:00,
2013-03-03 00:12:00,29.0,19.0,-100.00,WNW,295,1.0,5.0,65,0.00,,,-99.99,,2013-03-03 05:12:00,
2013-03-03 00:22:00,29.0,19.0,-100.00,NW,325,1.0,7.0,65,0.00,,,-99.99,,2013-03-03 05:22:00,
2013-03-03 00:32:00,29.0,19.0,-100.00,South,185,1.0,4.0,66,0.00,,,-99.99,,2013-03-03 05:32:00,
2013-03-03 00:42:00,29.0,20.0,-100.00,NW,305,2.0,3.0,66,0.00,,,-99.99,,2013-03-03 05:42:00,
2013-03-03 00:52:00,29.0,19.0,-100.00,NW,315,3.0,4.0,66,0.00,,,-99.99,,2013-03-03 05:52:00,
2013-03-03 01:02:00,29.0,20.0,-100.00,NW,320,3.0,6.0,66,0.00,,,-99.99,,2013-03-03 06:02:00,
2013-03-03 01:11:00,29.0,20.0,-100.00,NW,315,6.0,8.0,66,0.00,,,-99.99,,2013-03-03 06:11:00,
2013-03-03 01:21:00,29.0,20.0,-100.00,NW,315,4.0,9.0,67,0.00,,,-99.99,,2013-03-03 06:21:00,
2013-03-03 01:32:00,29.0,19.0,-100.00,NW,305,6.0,11.0,67,0.00,,,-99.99,,2013-03-03 06:32:00,
2013-03-03 01:42:00,29.0,19.0,-100.00,WNW,300,4.0,9.0,66,0.00,,,-99.99,,2013-03-03 06:42:00,
2013-03-03 01:52:00,29.0,19.0,-100.00,NW,320,3.0,7.0,66,0.00,,,-99.99,,2013-03-03 06:52:00,
2013-03-03 02:01:00,29.0,19.0,-100.00,NNW,330,2.0,6.0,66,0.00,,,-99.99,,2013-03-03 07:01:00,
2013-03-03 02:11:00,29.0,19.0,-100.00,WNW,295,2.0,5.0,65,0.00,,,-99.99,,2013-03-03 07:11:00,
2013-03-03 02:21:00,29.0,19.0,-100.00,WNW,300,1.0,3.0,65,0.00,,,-99.99,,2013-03-03 07:21:00,
2013-03-03 02:32:00,29.0,19.0,-100.00,NW,305,1.0,3.0,65,0.00,,,-99.99,,2013-03-03 07:32:00,
2013-03-03 02:51:00,29.0,19.0,-100.00,NW,325,1.0,6.0,67,0.00,,,-99.99,,2013-03-03 07:51:00,
2013-03-03 03:01:00,29.0,19.0,-100.00,NW,310,2.0,7.0,67,0.00,,,-99.99,,2013-03-03 08:01:00,
2013-03-03 03:11:00,29.0,19.0,-100.00,WNW,295,3.0,7.0,67,0.00,,,-99.99,,2013-03-03 08:11:00,
2013-03-03 03:21:00,29.0,19.0,-100.00,NW,310,6.0,13.0,67,0.00,,,-99.99,,2013-03-03 08:21:00,
2013-03-03 03:32:00,29.0,19.0,-100.00,NW,310,2.0,6.0,67,0.00,,,-99.99,,2013-03-03 08:32:00,
2013-03-03 03:41:00,29.0,19.0,-100.00,WNW,300,2.0,6.0,67,0.00,,,-99.99,,2013-03-03 08:41:00,
2013-03-03 03:53:00,29.0,19.0,-100.00,NW,315,4.0,8.0,67,0.00,,,-99.99,,2013-03-03 08:53:00,
2013-03-03 04:02:00,29.0,19.0,-100.00,NW,320,4.0,8.0,67,0.00,,,-99.99,,2013-03-03 09:02:00,
2013-03-03 04:11:00,29.0,19.0,-100.00,NW,310,2.0,7.0,67,0.00,,,-99.99,,2013-03-03 09:11:00,
2013-03-03 04:21:00,29.0,19.0,-100.00,NW,310,2.0,7.0,67,0.00,,,-99.99,,2013-03-03 09:21:00,
2013-03-03 04:32:00,29.0,19.0,-100.00,NW,310,2.0,7.0,67,0.00,,,-99.99,,2013-03-03 09:32:00,
2013-03-03 04:41:00,29.0,19.0,-100.00,NW,310,2.0,7.0,67,0.00,,,-99.99,,2013-03-03 09:41:00,
2013-03-03 04:51:00,29.0,19.0,-100.00,NW,310,2.0,7.0,67,0.00,,,-99.99,,2013-03-03 09:51:00,